• In Deutschland
  • Länderverzeichnis
  • Für 7 Tage
  • Wassertemperatur
  • Satellitenkarten
  • Wetterkarte
  • Widgets
  • user-avatar
    Anmelden

    Stündliche Wetter Barra

    Heute, 30 Mai, Dienstag

    Zeit Temperatur Niederschläge Wind Luftdruck Luftfeuchtigkeit
    00:00 +18°C° 0 mm 2 m/S 752 mmHg 86%
    01:00 +18°C° 0 mm 3 m/S 752 mmHg 85%
    02:00 +18°C° 0 mm 3 m/S 752 mmHg 86%
    03:00 +18°C° 0 mm 3 m/S 752 mmHg 88%
    04:00 +17°C° 0 mm 3 m/S 751 mmHg 89%
    05:00 +18°C° 0 mm 3 m/S 751 mmHg 90%
    06:00 +18°C° 0 mm 3 m/S 752 mmHg 91%
    07:00 +18°C° 0 mm 3 m/S 752 mmHg 92%
    08:00 +20°C° 0 mm 4 m/S 752 mmHg 85%
    09:00 +22°C° 0 mm 4 m/S 752 mmHg 78%
    10:00 +25°C° 0 mm 4 m/S 752 mmHg 71%
    11:00 +26°C° 0 mm 4 m/S 752 mmHg 67%
    12:00 +27°C° 0 mm 4 m/S 752 mmHg 64%
    13:00 +27°C° 0 mm 4 m/S 751 mmHg 60%
    14:00 +27°C° 0 mm 4 m/S 751 mmHg 62%
    15:00 +26°C° 0 mm 4 m/S 751 mmHg 64%
    16:00 +26°C° 0 mm 4 m/S 751 mmHg 66%
    17:00 +23°C° 0 mm 4 m/S 751 mmHg 74%
    18:00 +21°C° 0 mm 4 m/S 752 mmHg 81%
    19:00 +19°C° 0 mm 4 m/S 752 mmHg 89%
    20:00 +19°C° 0 mm 4 m/S 752 mmHg 90%
    21:00 +19°C° 0 mm 4 m/S 752 mmHg 90%
    22:00 +20°C° 0 mm 4 m/S 753 mmHg 90%
    23:00 +19°C° 0 mm 4 m/S 752 mmHg 91%

    Morgen, 31 Mai, Mittwoch

    Zeit Temperatur Niederschläge Wind Luftdruck Luftfeuchtigkeit
    00:00 +19°C° 0 mm 4 m/S 752 mmHg 92%
    01:00 +19°C° 0 mm 4 m/S 752 mmHg 93%
    02:00 +19°C° 0 mm 4 m/S 752 mmHg 92%
    03:00 +19°C° 0 mm 4 m/S 751 mmHg 92%
    04:00 +19°C° 0 mm 4 m/S 751 mmHg 92%
    05:00 +19°C° 0,1 mm 4 m/S 751 mmHg 91%
    06:00 +19°C° 0,1 mm 4 m/S 752 mmHg 90%
    07:00 +19°C° 0,1 mm 4 m/S 752 mmHg 89%
    08:00 +20°C° 0 mm 4 m/S 752 mmHg 83%
    09:00 +22°C° 0 mm 4 m/S 753 mmHg 76%
    10:00 +23°C° 0 mm 5 m/S 753 mmHg 70%
    11:00 +25°C° 0 mm 5 m/S 752 mmHg 68%
    12:00 +26°C° 0 mm 5 m/S 752 mmHg 66%
    13:00 +27°C° 0 mm 5 m/S 751 mmHg 63%
    14:00 +26°C° 0 mm 5 m/S 751 mmHg 64%
    15:00 +26°C° 0 mm 5 m/S 751 mmHg 65%
    16:00 +26°C° 0 mm 5 m/S 751 mmHg 66%
    17:00 +25°C° 0 mm 5 m/S 751 mmHg 73%
    18:00 +23°C° 0 mm 5 m/S 752 mmHg 80%
    19:00 +22°C° 0 mm 5 m/S 752 mmHg 87%
    20:00 +22°C° 0 mm 5 m/S 753 mmHg 87%
    21:00 +22°C° 0 mm 6 m/S 753 mmHg 87%
    22:00 +22°C° 0 mm 6 m/S 754 mmHg 86%
    23:00 +22°C° 0 mm 6 m/S 753 mmHg 84%

    übermorgen, 1 Juni, Donnerstag

    Zeit Temperatur Niederschläge Wind Luftdruck Luftfeuchtigkeit
    00:00 +21°C° 0 mm 6 m/S 753 mmHg 82%
    01:00 +21°C° 0 mm 6 m/S 753 mmHg 80%
    02:00 +21°C° 0 mm 6 m/S 753 mmHg 80%
    03:00 +20°C° 0 mm 6 m/S 753 mmHg 80%
    04:00 +20°C° 0 mm 6 m/S 752 mmHg 80%
    05:00 +20°C° 0 mm 6 m/S 753 mmHg 80%
    06:00 +20°C° 0 mm 6 m/S 753 mmHg 79%
    07:00 +19°C° 0 mm 6 m/S 753 mmHg 78%
    08:00 +20°C° 0 mm 7 m/S 754 mmHg 75%
    09:00 +20°C° 0 mm 7 m/S 754 mmHg 72%
    10:00 +21°C° 0 mm 7 m/S 755 mmHg 69%
    11:00 +21°C° 0 mm 7 m/S 754 mmHg 67%
    12:00 +22°C° 0 mm 7 m/S 754 mmHg 66%
    13:00 +22°C° 0 mm 7 m/S 753 mmHg 64%
    14:00 +22°C° 0 mm 6 m/S 753 mmHg 65%
    15:00 +22°C° 0 mm 6 m/S 753 mmHg 66%
    16:00 +22°C° 0 mm 6 m/S 752 mmHg 67%
    17:00 +21°C° 0,1 mm 6 m/S 753 mmHg 70%
    18:00 +21°C° 0,1 mm 6 m/S 753 mmHg 73%
    19:00 +20°C° 0,1 mm 6 m/S 754 mmHg 75%
    20:00 +20°C° 0,1 mm 6 m/S 754 mmHg 77%
    21:00 +20°C° 0,1 mm 7 m/S 754 mmHg 78%
    22:00 +20°C° 0,1 mm 7 m/S 755 mmHg 79%
    23:00 +20°C° 0,1 mm 7 m/S 754 mmHg 80%

    2 Juni, Freitag

    Zeit Temperatur Niederschläge Wind Luftdruck Luftfeuchtigkeit
    00:00 +18°C° 0,1 mm 7 m/S 754 mmHg 81%
    01:00 +18°C° 0,1 mm 7 m/S 754 mmHg 82%
    02:00 +18°C° 0,1 mm 7 m/S 753 mmHg 84%
    03:00 +18°C° 0,1 mm 7 m/S 753 mmHg 85%
    04:00 +18°C° 0,1 mm 7 m/S 753 mmHg 86%
    05:00 +18°C° 0,1 mm 7 m/S 753 mmHg 86%
    06:00 +18°C° 0,1 mm 7 m/S 754 mmHg 86%
    07:00 +18°C° 0,1 mm 7 m/S 754 mmHg 86%
    08:00 +20°C° 0,1 mm 7 m/S 754 mmHg 85%
    09:00 +21°C° 0,1 mm 7 m/S 755 mmHg 83%
    10:00 +21°C° 0,1 mm 7 m/S 755 mmHg 81%
    11:00 +22°C° 0,1 mm 7 m/S 755 mmHg 80%
    12:00 +22°C° 0,1 mm 7 m/S 754 mmHg 79%
    13:00 +22°C° 0,1 mm 7 m/S 754 mmHg 78%
    14:00 +22°C° 0,1 mm 7 m/S 753 mmHg 77%
    15:00 +22°C° 0,1 mm 7 m/S 753 mmHg 77%
    16:00 +22°C° 0,1 mm 7 m/S 753 mmHg 76%
    17:00 +22°C° 0 mm 7 m/S 753 mmHg 78%
    18:00 +22°C° 0 mm 7 m/S 754 mmHg 80%
    19:00 +21°C° 0 mm 6 m/S 754 mmHg 82%
    20:00 +21°C° 0,2 mm 6 m/S 754 mmHg 84%
    21:00 +20°C° 0,2 mm 6 m/S 755 mmHg 87%
    22:00 +20°C° 0,2 mm 6 m/S 755 mmHg 89%
    23:00 +20°C° 0,3 mm 6 m/S 755 mmHg 90%

    3 Juni, Samstag

    Zeit Temperatur Niederschläge Wind Luftdruck Luftfeuchtigkeit
    00:00 +20°C° 0,3 mm 6 m/S 754 mmHg 90%
    01:00 +20°C° 0,3 mm 6 m/S 754 mmHg 90%
    02:00 +19°C° 0,3 mm 6 m/S 754 mmHg 90%
    03:00 +19°C° 0,3 mm 6 m/S 753 mmHg 91%
    04:00 +19°C° 0,3 mm 6 m/S 753 mmHg 91%
    05:00 +19°C° 0,2 mm 5 m/S 753 mmHg 91%
    06:00 +19°C° 0,2 mm 5 m/S 753 mmHg 91%
    07:00 +19°C° 0,2 mm 5 m/S 754 mmHg 91%
    08:00 +19°C° 0,3 mm 5 m/S 754 mmHg 90%
    09:00 +20°C° 0,3 mm 5 m/S 754 mmHg 89%
    10:00 +20°C° 0,3 mm 5 m/S 754 mmHg 88%
    11:00 +20°C° 0,4 mm 5 m/S 754 mmHg 87%
    12:00 +21°C° 0,4 mm 5 m/S 753 mmHg 87%
    13:00 +21°C° 0,4 mm 5 m/S 753 mmHg 86%
    14:00 +21°C° 0,4 mm 6 m/S 753 mmHg 86%
    15:00 +21°C° 0,4 mm 6 m/S 752 mmHg 86%
    16:00 +22°C° 0,4 mm 6 m/S 752 mmHg 86%
    17:00 +21°C° 0,5 mm 6 m/S 753 mmHg 89%
    18:00 +21°C° 0,5 mm 6 m/S 753 mmHg 91%
    19:00 +20°C° 0,5 mm 6 m/S 753 mmHg 93%
    20:00 +20°C° 0,5 mm 6 m/S 753 mmHg 93%
    21:00 +20°C° 0,5 mm 6 m/S 754 mmHg 94%
    22:00 +19°C° 0,5 mm 6 m/S 754 mmHg 94%
    23:00 +19°C° 0,5 mm 6 m/S 753 mmHg 94%

    4 Juni, Sonntag

    Zeit Temperatur Niederschläge Wind Luftdruck Luftfeuchtigkeit
    00:00 +19°C° 0,5 mm 5 m/S 753 mmHg 93%
    01:00 +19°C° 0,5 mm 5 m/S 753 mmHg 92%
    02:00 +19°C° 0,4 mm 5 m/S 752 mmHg 91%
    03:00 +19°C° 0,4 mm 5 m/S 752 mmHg 91%
    04:00 +19°C° 0,4 mm 5 m/S 752 mmHg 90%
    05:00 +17°C° 0,3 mm 5 m/S 752 mmHg 90%
    06:00 +17°C° 0,3 mm 5 m/S 753 mmHg 90%
    07:00 +17°C° 0,3 mm 5 m/S 753 mmHg 90%
    08:00 +19°C° 0,3 mm 5 m/S 753 mmHg 88%
    09:00 +20°C° 0,3 mm 5 m/S 753 mmHg 85%
    10:00 +21°C° 0,3 mm 5 m/S 753 mmHg 83%
    11:00 +21°C° 0,3 mm 5 m/S 752 mmHg 82%
    12:00 +22°C° 0,3 mm 5 m/S 752 mmHg 81%
    13:00 +22°C° 0,3 mm 5 m/S 751 mmHg 79%
    14:00 +22°C° 0,3 mm 5 m/S 751 mmHg 80%
    15:00 +22°C° 0,3 mm 6 m/S 751 mmHg 80%
    16:00 +22°C° 0,3 mm 6 m/S 751 mmHg 81%
    17:00 +21°C° 0,3 mm 6 m/S 751 mmHg 85%
    18:00 +20°C° 0,3 mm 5 m/S 751 mmHg 90%
    19:00 +19°C° 0,3 mm 5 m/S 752 mmHg 94%
    20:00 +19°C° 0,4 mm 5 m/S 752 mmHg 95%
    21:00 +19°C° 0,4 mm 5 m/S 752 mmHg 95%
    22:00 +19°C° 0,4 mm 5 m/S 752 mmHg 96%
    23:00 +19°C° 0,4 mm 5 m/S 752 mmHg 96%
    Mehr zeigen